Voltar ao catálogo

ARIANE 2 DEB

AtivoUNKNOWN
NORAD 23966·DEBRIS·🇫🇷 France

Lançado Oct 28, 1988 de Guiana Space Centre

Loading…

Próximas Passagens (próximas 24 horas)

TLE

EnvelhecendoSource: Space-Track

Época: Aug 24, 2026, 05:43 UTC

1 23966U 88098F   26236.23844485  .02638522 -15253-4  67163-2 0  9990
2 23966   3.4240 293.3554 1770471 334.2289  17.9190 12.19954651408462

Acompanhe ARIANE 2 DEB em tempo real com AllMySat

Download on the App Store